SCP
0 0 0 0 0 0 0 0 0 0 0 0 0 0 0 0 0 0 0 0 0 0 0 0 0 0 0 0 0 0 0 0 0 0 0 0 0 0 0 0 0 0 0
0 0 0 0 0 0 0 0 0 0 0 0 0 0 0 0 0 0 0 0 0 0 0 0 0 0 0 0 0 0 0 0 0 0 0 0 0 0 0 0 0 0 0
0 0 0 0 0 0 0 0 0 0 0 0 0 0 0 0 0 0 0 0 0 0 0 0 0 0 0 0 0 0 0 0 0 0 0 0 0 0 0 0 0 0 0
0 0 0 0 0 0 0 0 0 0 0 0 0 0 0 0 0 0 0 0 0 0 0 0 0 0 0 0 0 0 0 0 0 0 0 0 0 0 0 0 0 0 0
0 0 0 0 0 0 0 0 0 0 0 0 0 0 0 0 0 0 0 0 0 0 0 0 0 0 0 0 0 0 0 0 0 0 0 0 0 0 0 0 0 0 0
0 0 0 0 0 0 0 0 0 0 0 0 0 0 0 0 0 0 0 0 0 0 0 0 0 0 0 0 0 0 0 0 0 0 0 0 0 0 0 0 0 0 0
0 0 0 0 0 0 0 0 0 0 0 0 0 0 0 0 0 0 0 0 0 0 0 0 0 0 0 0 0 0 0 0 0 0 0 0 0 0 0 0 0 0 0
0 0 0 0 0 0 0 0 0 0 0 0 0 0 0 0 0 0 0 0 0 0 0 0 0 0 0 0 0 0 0 0 0 0 0 0 0 0 0 0 0 0 0
0 0 0 0 0 0 0 0 0 0 0 0 0 0 0 0 0 0 0 0 0 0 0 0 0 0 0 0 0 0 0 0 0 0 0 0 0 0 0 0 0 0 0
0 0 0 0 0 0 0 0 0 0 0 0 0 0 0 0 0 0 0 0 0 0 0 0 0 0 0 0 0 0 0 0 0 0 0 0 0 0 0 0 0 0 0
0 0 0 0 0 0 0 0 0 0 0 0 0 0 0 0 0 0 0 0 0 0 0 0 0 0 0 0 0 0 0 0 0 0 0 0 0 0 0 0 0 0 0
0 0 0 0 0 0 0 0 0 0 0 0 0 0 0 0 0 0 0 0 0 0 0 0 0 0 0 0 0 0 0 0 0 0 0 0 0 0 0 0 0 0 0
0 0 0 0 0 0 0 0 0 0 0 0 0 0 0 0 0 0 0 0 0 0 0 0 0 0 0 0 0 0 0 0 0 0 0 0 0 0 0 0 0 0 0
0 0 0 0 0 0 0 0 0 0 0 0 0 0 0 0 0 0 0 0 0 0 0 0 0 0 0 0 0 0 0 0 0 0 0 0 0 0 0 0 0 0 0
0 0 0 0 0 0 0 0 0 0 0 0 0 0 0 0 0 0 0 0 0 0 0 0 0 0 0 0 0 0 0 0 0 0 0 0 0 0 0 0 0 0 0
0 0 0 0 0 0 0 0 0 0 0 0 0 0 0 0 0 0 0 0 0 0 0 0 0 0 0 0 0 0 0 -0 -0 0 0 0 0 0 0 0 0 0 0
0 0 0 0 0 0 0 0 0 0 0 0 0 0 0 0 0 0 0 0 0 0 0 0 0 0 0 0 0 0 0 0 0 0 0 0 -0 -0 -0 -0 -0 0 0
0 0 0 0 0 0 0 0 0 0 0 0 0 0 0 0 0 0 0 0 0 0 0 0 0 0 0 0 0 0 0 0 0 0 0 0 0 0 0 0 0 0 0
0 0 0 0 0 0 0 0 0 0 0 0 0 0 0 0 0 0 0 0 0 0 0 0 0 0 0 0 0 0 0 0 0 0 0 0 0 0 0 0 0 0 0
0 0 0 0 0 0 0 0 0 0 0 0 0 0 0 0 0 0 0 0 0 0 0 0 0 0 0 0 0 0 0 0 0 0 0 -0 -0 0 0 -0 -0 -0 0
0 0 0 0 0 0 0 0 0 0 0 0 0 0 0 0 0 0 0 0 0 0 0 0 0 0 0 0 0 0 0 0 0 0 0 0 0 0 0 -0 -0 -0 -0
0 0 0 0 0 0 0 0 0 0 0 0 0 0 0 0 0 0 0 0 0 0 0 0 0 0 0 0 0 0 0 0 0 0 0 0 0 0 0 0 -0 -0 -0
0 0 0 0 0 0 0 0 0 0 0 0 0 0 0 0 0 0 0 0 0 0 0 0 0 0 0 0 0 0 0 0 0 0 0 0 0 -0 0 0 0 -0 -0
0 0 0 0 0 0 0 0 0 0 0 0 0 0 0 0 0 0 0 0 0 0 0 0 0 0 0 0 0 0 0 0 0 0 -0 0 0 0 0 0 -0 -0 -0
0 0 0 0 0 0 0 0 0 0 0 0 0 0 0 0 0 0 0 0 0 0 0 0 0 0 0 0 0 0 0 0 0 0 0 0 0 0 -0 -0 -0 -0 0
0 0 0 0 0 0 0 0 0 0 0 0 0 0 0 0 0 0 0 0 0 0 0 0 0 0 0 0 0 0 0 0 0 0 -0 0 0 0 -0 -0 0 0 0
Wind_Speed_500mb
50 48 46 43 38 32 27 23 19 15 12 11 12 12 11 12 13 14 14 13 15 18 18 19 18 17 10 18 18 21 19 20 24 25 23 19 22 26 30 36 41 40 40
57 55 52 49 44 38 34 30 24 19 17 14 12 11 11 11 12 13 14 13 13 16 20 21 19 16 14 18 20 20 19 23 23 19 19 20 21 23 25 27 31 34 39
66 64 60 57 51 46 42 36 30 25 21 16 14 12 11 11 12 13 12 11 11 14 17 19 19 22 24 23 18 15 14 14 21 18 20 22 24 25 26 27 30 32 34
73 72 69 64 59 54 49 43 37 30 25 20 17 15 13 13 13 12 10 10 10 12 14 16 17 21 18 13 12 14 18 20 22 23 24 24 25 26 27 28 29 31 33
80 79 74 68 66 62 56 50 43 37 31 27 23 19 16 16 14 13 12 12 11 11 13 15 16 15 14 12 12 16 20 23 22 25 25 27 28 30 32 33 33 33 35
88 85 80 76 73 69 64 59 52 44 38 34 27 21 19 17 18 18 18 17 17 16 16 16 16 15 14 13 19 20 22 22 23 25 26 26 28 30 32 34 36 39 41
95 94 89 86 82 78 71 63 57 51 47 40 32 26 21 21 22 24 24 21 18 17 17 14 13 14 16 18 19 19 19 18 19 21 22 24 26 29 32 35 37 41 44
101 100 97 94 89 83 77 72 67 62 56 48 41 30 20 22 28 32 32 27 20 21 17 11 12 14 14 15 14 15 16 15 14 15 18 21 24 28 31 35 38 41 44
108 107 102 97 93 89 87 81 74 68 61 56 50 32 19 19 34 41 41 36 27 26 16 11 14 15 16 14 14 14 12 10 16 19 22 26 29 30 32 36 38 40 44
113 109 105 102 99 97 93 86 78 73 66 62 55 52 45 25 23 23 42 41 40 35 28 19 18 18 16 13 14 11 10 19 22 23 25 28 30 32 35 38 41 44 47
117 114 110 106 104 100 93 89 85 81 74 68 63 56 53 48 44 32 28 40 46 39 36 27 22 20 16 12 10 8 20 22 25 27 30 32 34 35 36 38 40 42 45
118 117 113 112 108 103 98 92 86 83 79 73 67 62 58 54 54 48 45 36 38 37 36 31 26 22 17 14 12 18 24 29 31 34 36 37 37 37 38 40 43 46 48
108 118 118 116 113 106 101 96 92 87 82 79 73 70 64 59 53 46 44 42 38 38 33 31 28 24 20 17 16 24 30 35 39 40 41 41 39 40 41 43 44 46 48
100 102 112 114 112 107 105 100 96 93 89 84 80 74 69 65 61 55 50 47 41 40 35 33 31 27 23 21 24 30 36 40 45 47 46 45 44 44 43 46 49 51 53
94 96 98 110 111 111 108 105 105 102 97 91 85 80 76 72 68 62 58 52 47 40 37 37 34 30 26 26 27 33 39 43 47 47 46 45 44 43 44 45 44 46 49
86 90 94 98 107 111 111 109 107 103 100 97 91 86 82 79 73 70 64 58 54 49 41 33 32 30 28 26 30 35 40 43 43 42 42 42 43 44 45 48 51 51 52
81 89 90 93 97 105 111 112 113 109 105 102 98 92 87 84 81 76 68 64 60 55 51 47 41 34 30 28 32 38 42 47 47 43 41 41 43 46 49 50 51 54 57
75 82 88 94 97 98 106 114 117 113 108 112 106 99 94 89 86 80 74 70 64 59 55 48 41 36 34 34 38 44 44 47 48 44 41 37 37 40 43 47 50 52 55
73 85 85 91 100 101 102 105 115 118 114 115 112 104 99 94 94 88 84 75 67 63 56 50 45 42 42 42 43 46 47 49 47 43 42 34 37 36 35 42 49 56 62
70 81 85 90 95 103 101 104 108 114 116 117 116 109 102 98 99 93 86 77 70 66 60 54 49 45 41 40 40 44 44 46 40 41 43 40 48 54 53 54 54 57 61
71 80 83 85 92 102 108 109 108 112 121 120 121 113 108 98 97 94 87 81 76 71 68 60 54 49 44 40 39 38 37 40 38 33 37 49 53 53 55 58 62 67 71
64 73 79 82 91 99 108 111 111 112 116 120 120 114 113 105 99 97 91 81 77 76 72 66 59 53 43 38 35 34 35 36 34 32 50 57 50 53 57 64 66 71 73
61 66 72 81 87 91 99 105 106 110 115 120 117 117 118 112 103 102 95 88 83 78 74 65 60 51 43 36 34 33 37 35 37 37 52 64 53 59 65 68 68 69 75
64 59 66 74 82 87 94 100 93 97 108 115 116 119 117 114 107 105 100 92 86 81 77 71 57 50 42 36 36 35 33 36 41 36 43 61 57 69 77 78 76 74 89
71 60 58 66 72 80 90 95 94 92 95 104 111 115 114 112 105 108 98 91 85 82 73 65 54 47 43 39 38 32 29 35 42 39 38 47 63 81 88 82 87 95 98
75 65 58 59 63 72 78 82 88 92 92 101 114 112 115 113 101 102 100 93 90 80 73 63 57 53 46 33 30 32 30 32 36 33 27 49 57 68 78 78 95 103 106
Wind_Direction_500mb
230 228 226 224 224 225 227 231 236 244 257 274 286 297 307 311 310 305 295 280 270 259 258 252 251 253 222 240 249 261 274 279 281 283 278 274 274 276 272 268 267 266 269
230 229 229 228 227 226 227 227 228 230 237 248 265 285 298 307 307 305 297 287 264 243 243 245 241 141 216 244 252 265 276 282 281 287 297 295 290 285 282 279 277 273 271
231 230 229 227 226 225 225 227 229 228 233 242 253 267 280 292 299 300 294 277 255 236 231 229 221 167 239 257 269 280 283 293 296 313 314 314 313 310 308 304 297 291 282
231 230 228 226 225 224 224 225 225 226 229 234 245 255 265 276 279 280 271 255 228 216 221 222 218 223 243 262 278 288 299 302 307 310 310 310 308 304 303 296 296 297 297
231 230 229 228 226 225 224 224 223 222 224 229 235 243 254 261 263 252 233 220 214 214 213 218 220 226 242 254 268 282 290 296 303 300 297 294 293 293 293 296 296 293 289
230 229 228 227 227 226 224 223 222 221 221 224 229 238 246 251 243 232 217 209 210 212 214 219 228 231 231 256 276 288 288 293 294 294 296 298 294 294 295 293 290 289 288
229 228 227 226 226 227 228 226 223 221 222 222 222 220 224 227 228 223 215 203 200 207 210 217 227 244 266 278 285 292 294 297 300 303 309 312 310 306 302 300 299 297 295
230 230 228 226 226 226 225 225 224 223 221 218 218 215 207 218 215 207 207 210 214 213 205 237 257 264 268 278 277 276 280 288 301 310 312 309 307 308 306 303 300 296 294
230 229 229 228 228 227 226 226 227 227 226 221 217 211 192 206 206 217 221 225 226 212 225 260 272 271 275 268 262 258 258 296 303 302 303 304 305 304 303 302 301 299 296
232 230 230 230 229 229 226 226 225 226 227 228 223 223 226 212 188 198 214 223 221 224 225 246 255 258 258 251 258 250 272 309 306 308 310 307 306 304 302 301 299 298 296
231 231 230 230 230 230 230 228 225 224 225 228 230 230 227 226 225 215 206 212 215 222 231 244 247 245 241 236 246 260 306 310 315 317 320 320 316 315 312 308 304 301 299
234 231 230 231 230 230 230 230 229 228 229 228 229 234 238 232 229 223 225 220 220 219 227 231 236 233 235 246 254 298 313 318 325 329 324 321 321 320 318 316 313 309 308
239 233 232 230 230 230 229 229 230 230 230 231 231 231 233 236 241 238 233 230 225 226 225 232 230 230 242 247 277 305 316 325 328 326 324 326 329 328 324 319 314 311 311
249 241 235 233 232 231 231 229 228 231 231 231 232 233 233 233 235 238 239 237 231 229 229 229 234 242 246 267 297 310 319 324 324 324 326 329 330 326 323 320 318 319 318
252 248 241 236 233 232 231 229 229 229 229 229 229 231 233 233 233 233 235 237 236 233 231 227 227 232 241 275 295 309 318 321 322 323 326 327 326 325 323 321 325 328 323
256 249 244 239 236 233 231 230 231 230 230 231 229 228 231 232 232 232 232 235 235 234 235 237 236 248 263 283 300 310 315 316 318 321 322 321 319 319 321 329 332 328 324
260 255 248 242 239 236 234 231 231 230 231 232 231 228 230 230 232 232 231 232 233 232 232 238 245 254 267 279 292 300 304 307 311 318 320 320 320 322 326 328 325 322 321
263 255 250 248 242 237 234 233 232 231 230 232 231 229 228 228 229 231 232 233 234 234 233 235 241 250 259 271 282 288 296 305 309 316 315 319 320 319 319 318 317 319 319
269 258 250 247 247 243 238 235 234 234 231 232 233 230 230 230 230 229 230 231 232 234 234 236 241 241 251 265 275 286 296 299 306 313 313 309 308 309 316 322 325 326 324
269 264 257 251 248 246 244 239 235 235 234 234 235 233 232 232 234 231 230 230 231 233 234 235 238 243 253 265 275 283 292 299 309 317 310 318 330 334 338 332 332 332 327
272 265 261 256 253 249 246 240 236 234 234 233 233 233 234 232 235 236 232 229 229 231 233 234 234 239 249 258 271 282 291 298 308 312 309 324 323 330 336 331 337 336 333
282 271 262 255 252 252 249 244 240 237 237 235 233 233 234 232 230 233 231 229 233 232 232 233 232 238 244 253 264 276 287 294 310 320 313 316 323 336 334 331 340 340 335
288 281 270 261 253 250 249 248 244 242 239 237 235 232 232 231 227 228 229 228 229 229 230 234 236 241 240 251 260 270 279 290 298 322 314 313 331 332 331 332 339 341 336
294 285 280 270 261 256 253 250 245 243 241 243 240 237 234 231 227 226 225 226 226 227 227 230 233 236 241 250 259 266 277 290 299 315 318 309 331 328 327 330 335 339 334
314 288 280 275 268 261 257 252 245 238 237 240 243 242 238 232 226 227 224 225 226 226 225 230 230 236 243 244 254 268 276 285 296 313 319 316 330 328 327 328 333 336 329
308 304 287 277 273 267 259 253 246 239 236 237 237 238 237 234 225 224 225 224 224 223 221 224 227 229 233 237 244 257 270 281 293 314 324 321 330 334 328 327 325 326 328
Wind_Speed_850mb
50 48 46 43 38 32 27 23 19 15 12 11 12 12 11 12 13 14 14 13 15 18 18 19 18 17 10 18 18 21 19 20 24 25 23 19 22 26 30 36 41 40 40
57 55 52 49 44 38 34 30 24 19 17 14 12 11 11 11 12 13 14 13 13 16 20 21 19 16 14 18 20 20 19 23 23 19 19 20 21 23 25 27 31 34 39
66 64 60 57 51 46 42 36 30 25 21 16 14 12 11 11 12 13 12 11 11 14 17 19 19 22 24 23 18 15 14 14 21 18 20 22 24 25 26 27 30 32 34
73 72 69 64 59 54 49 43 37 30 25 20 17 15 13 13 13 12 10 10 10 12 14 16 17 21 18 13 12 14 18 20 22 23 24 24 25 26 27 28 29 31 33
80 79 74 68 66 62 56 50 43 37 31 27 23 19 16 16 14 13 12 12 11 11 13 15 16 15 14 12 12 16 20 23 22 25 25 27 28 30 32 33 33 33 35
88 85 80 76 73 69 64 59 52 44 38 34 27 21 19 17 18 18 18 17 17 16 16 16 16 15 14 13 19 20 22 22 23 25 26 26 28 30 32 34 36 39 41
95 94 89 86 82 78 71 63 57 51 47 40 32 26 21 21 22 24 24 21 18 17 17 14 13 14 16 18 19 19 19 18 19 21 22 24 26 29 32 35 37 41 44
101 100 97 94 89 83 77 72 67 62 56 48 41 30 20 22 28 32 32 27 20 21 17 11 12 14 14 15 14 15 16 15 14 15 18 21 24 28 31 35 38 41 44
108 107 102 97 93 89 87 81 74 68 61 56 50 32 19 19 34 41 41 36 27 26 16 11 14 15 16 14 14 14 12 10 16 19 22 26 29 30 32 36 38 40 44
113 109 105 102 99 97 93 86 78 73 66 62 55 52 45 25 23 23 42 41 40 35 28 19 18 18 16 13 14 11 10 19 22 23 25 28 30 32 35 38 41 44 47
117 114 110 106 104 100 93 89 85 81 74 68 63 56 53 48 44 32 28 40 46 39 36 27 22 20 16 12 10 8 20 22 25 27 30 32 34 35 36 38 40 42 45
118 117 113 112 108 103 98 92 86 83 79 73 67 62 58 54 54 48 45 36 38 37 36 31 26 22 17 14 12 18 24 29 31 34 36 37 37 37 38 40 43 46 48
108 118 118 116 113 106 101 96 92 87 82 79 73 70 64 59 53 46 44 42 38 38 33 31 28 24 20 17 16 24 30 35 39 40 41 41 39 40 41 43 44 46 48
100 102 112 114 112 107 105 100 96 93 89 84 80 74 69 65 61 55 50 47 41 40 35 33 31 27 23 21 24 30 36 40 45 47 46 45 44 44 43 46 49 51 53
94 96 98 110 111 111 108 105 105 102 97 91 85 80 76 72 68 62 58 52 47 40 37 37 34 30 26 26 27 33 39 43 47 47 46 45 44 43 44 45 44 46 49
86 90 94 98 107 111 111 109 107 103 100 97 91 86 82 79 73 70 64 58 54 49 41 33 32 30 28 26 30 35 40 43 43 42 42 42 43 44 45 48 51 51 52
81 89 90 93 97 105 111 112 113 109 105 102 98 92 87 84 81 76 68 64 60 55 51 47 41 34 30 28 32 38 42 47 47 43 41 41 43 46 49 50 51 54 57
75 82 88 94 97 98 106 114 117 113 108 112 106 99 94 89 86 80 74 70 64 59 55 48 41 36 34 34 38 44 44 47 48 44 41 37 37 40 43 47 50 52 55
73 85 85 91 100 101 102 105 115 118 114 115 112 104 99 94 94 88 84 75 67 63 56 50 45 42 42 42 43 46 47 49 47 43 42 34 37 36 35 42 49 56 62
70 81 85 90 95 103 101 104 108 114 116 117 116 109 102 98 99 93 86 77 70 66 60 54 49 45 41 40 40 44 44 46 40 41 43 40 48 54 53 54 54 57 61
71 80 83 85 92 102 108 109 108 112 121 120 121 113 108 98 97 94 87 81 76 71 68 60 54 49 44 40 39 38 37 40 38 33 37 49 53 53 55 58 62 67 71
64 73 79 82 91 99 108 111 111 112 116 120 120 114 113 105 99 97 91 81 77 76 72 66 59 53 43 38 35 34 35 36 34 32 50 57 50 53 57 64 66 71 73
61 66 72 81 87 91 99 105 106 110 115 120 117 117 118 112 103 102 95 88 83 78 74 65 60 51 43 36 34 33 37 35 37 37 52 64 53 59 65 68 68 69 75
64 59 66 74 82 87 94 100 93 97 108 115 116 119 117 114 107 105 100 92 86 81 77 71 57 50 42 36 36 35 33 36 41 36 43 61 57 69 77 78 76 74 89
71 60 58 66 72 80 90 95 94 92 95 104 111 115 114 112 105 108 98 91 85 82 73 65 54 47 43 39 38 32 29 35 42 39 38 47 63 81 88 82 87 95 98
75 65 58 59 63 72 78 82 88 92 92 101 114 112 115 113 101 102 100 93 90 80 73 63 57 53 46 33 30 32 30 32 36 33 27 49 57 68 78 78 95 103 106
Wind_Direction_850mb
230 228 226 224 224 225 227 231 236 244 257 274 286 297 307 311 310 305 295 280 270 259 258 252 251 253 222 240 249 261 274 279 281 283 278 274 274 276 272 268 267 266 269
230 229 229 228 227 226 227 227 228 230 237 248 265 285 298 307 307 305 297 287 264 243 243 245 241 141 216 244 252 265 276 282 281 287 297 295 290 285 282 279 277 273 271
231 230 229 227 226 225 225 227 229 228 233 242 253 267 280 292 299 300 294 277 255 236 231 229 221 167 239 257 269 280 283 293 296 313 314 314 313 310 308 304 297 291 282
231 230 228 226 225 224 224 225 225 226 229 234 245 255 265 276 279 280 271 255 228 216 221 222 218 223 243 262 278 288 299 302 307 310 310 310 308 304 303 296 296 297 297
231 230 229 228 226 225 224 224 223 222 224 229 235 243 254 261 263 252 233 220 214 214 213 218 220 226 242 254 268 282 290 296 303 300 297 294 293 293 293 296 296 293 289
230 229 228 227 227 226 224 223 222 221 221 224 229 238 246 251 243 232 217 209 210 212 214 219 228 231 231 256 276 288 288 293 294 294 296 298 294 294 295 293 290 289 288
229 228 227 226 226 227 228 226 223 221 222 222 222 220 224 227 228 223 215 203 200 207 210 217 227 244 266 278 285 292 294 297 300 303 309 312 310 306 302 300 299 297 295
230 230 228 226 226 226 225 225 224 223 221 218 218 215 207 218 215 207 207 210 214 213 205 237 257 264 268 278 277 276 280 288 301 310 312 309 307 308 306 303 300 296 294
230 229 229 228 228 227 226 226 227 227 226 221 217 211 192 206 206 217 221 225 226 212 225 260 272 271 275 268 262 258 258 296 303 302 303 304 305 304 303 302 301 299 296
232 230 230 230 229 229 226 226 225 226 227 228 223 223 226 212 188 198 214 223 221 224 225 246 255 258 258 251 258 250 272 309 306 308 310 307 306 304 302 301 299 298 296
231 231 230 230 230 230 230 228 225 224 225 228 230 230 227 226 225 215 206 212 215 222 231 244 247 245 241 236 246 260 306 310 315 317 320 320 316 315 312 308 304 301 299
234 231 230 231 230 230 230 230 229 228 229 228 229 234 238 232 229 223 225 220 220 219 227 231 236 233 235 246 254 298 313 318 325 329 324 321 321 320 318 316 313 309 308
239 233 232 230 230 230 229 229 230 230 230 231 231 231 233 236 241 238 233 230 225 226 225 232 230 230 242 247 277 305 316 325 328 326 324 326 329 328 324 319 314 311 311
249 241 235 233 232 231 231 229 228 231 231 231 232 233 233 233 235 238 239 237 231 229 229 229 234 242 246 267 297 310 319 324 324 324 326 329 330 326 323 320 318 319 318
252 248 241 236 233 232 231 229 229 229 229 229 229 231 233 233 233 233 235 237 236 233 231 227 227 232 241 275 295 309 318 321 322 323 326 327 326 325 323 321 325 328 323
256 249 244 239 236 233 231 230 231 230 230 231 229 228 231 232 232 232 232 235 235 234 235 237 236 248 263 283 300 310 315 316 318 321 322 321 319 319 321 329 332 328 324
260 255 248 242 239 236 234 231 231 230 231 232 231 228 230 230 232 232 231 232 233 232 232 238 245 254 267 279 292 300 304 307 311 318 320 320 320 322 326 328 325 322 321
263 255 250 248 242 237 234 233 232 231 230 232 231 229 228 228 229 231 232 233 234 234 233 235 241 250 259 271 282 288 296 305 309 316 315 319 320 319 319 318 317 319 319
269 258 250 247 247 243 238 235 234 234 231 232 233 230 230 230 230 229 230 231 232 234 234 236 241 241 251 265 275 286 296 299 306 313 313 309 308 309 316 322 325 326 324
269 264 257 251 248 246 244 239 235 235 234 234 235 233 232 232 234 231 230 230 231 233 234 235 238 243 253 265 275 283 292 299 309 317 310 318 330 334 338 332 332 332 327
272 265 261 256 253 249 246 240 236 234 234 233 233 233 234 232 235 236 232 229 229 231 233 234 234 239 249 258 271 282 291 298 308 312 309 324 323 330 336 331 337 336 333
282 271 262 255 252 252 249 244 240 237 237 235 233 233 234 232 230 233 231 229 233 232 232 233 232 238 244 253 264 276 287 294 310 320 313 316 323 336 334 331 340 340 335
288 281 270 261 253 250 249 248 244 242 239 237 235 232 232 231 227 228 229 228 229 229 230 234 236 241 240 251 260 270 279 290 298 322 314 313 331 332 331 332 339 341 336
294 285 280 270 261 256 253 250 245 243 241 243 240 237 234 231 227 226 225 226 226 227 227 230 233 236 241 250 259 266 277 290 299 315 318 309 331 328 327 330 335 339 334
314 288 280 275 268 261 257 252 245 238 237 240 243 242 238 232 226 227 224 225 226 226 225 230 230 236 243 244 254 268 276 285 296 313 319 316 330 328 327 328 333 336 329
308 304 287 277 273 267 259 253 246 239 236 237 237 238 237 234 225 224 225 224 224 223 221 224 227 229 233 237 244 257 270 281 293 314 324 321 330 334 328 327 325 326 328